Snowfall_Accumulation
0.0 0.0 0.0 0.0 0.0 0.0 0.0 0.0 0.0 0.0 0.0 0.0 0.0 0.0 0.0 0.0 0.0 0.0 0.0 0.0 0.0 0.0 0.0 0.0 0.0 0.0 0.0 0.0 0.0 0.0 0.4 2.0 0.8 0.0 0.0 0.0 0.0 0.0 0.0 0.0 0.0 0.0 0.0 0.0 0.0
0.0 0.0 0.0 0.0 0.0 0.0 0.0 0.0 0.0 0.0 0.0 0.0 0.0 0.0 0.0 0.0 0.0 0.0 0.0 0.0 0.0 0.0 0.0 0.0 0.0 0.0 0.0 0.0 0.0 0.0 0.3 0.0 0.0 0.0 0.0 0.0 0.0 0.0 0.0 0.0 0.0 0.0 0.0 0.0 0.0
0.0 0.0 0.0 0.0 0.0 0.0 0.0 0.0 0.0 0.0 0.0 0.0 0.0 0.0 0.0 0.0 0.0 0.0 0.0 0.0 0.0 0.0 0.0 0.0 0.0 0.0 0.0 0.0 0.0 0.0 0.1 0.0 0.0 0.0 0.0 0.0 0.0 0.0 0.0 0.0 0.0 0.0 0.0 0.0 0.0
0.0 0.0 0.0 0.0 0.0 0.0 0.0 0.0 0.0 0.0 0.0 0.0 0.0 0.0 0.0 0.0 0.0 0.0 0.0 0.0 0.0 0.0 0.0 0.0 0.0 0.0 0.0 0.0 0.0 0.2 0.0 0.0 0.0 0.0 0.0 0.0 0.0 0.0 0.0 0.0 0.0 0.0 0.0 0.0 0.0
0.0 0.0 0.0 0.0 0.0 0.0 0.0 0.0 0.0 0.0 0.0 0.0 0.0 0.0 0.0 0.0 0.0 0.0 0.0 0.0 0.0 0.0 0.0 0.0 0.0 0.0 0.3 0.2 0.0 0.0 0.0 0.0 0.0 0.0 0.0 0.0 0.0 0.0 0.0 0.0 0.0 0.0 0.0 0.0 0.0
0.0 0.0 0.0 0.0 0.0 0.0 0.0 0.0 0.0 0.0 0.0 0.0 0.0 0.0 0.0 0.0 0.0 0.0 0.0 0.0 0.0 0.0 0.0 0.0 0.0 0.0 0.0 0.4 0.5 0.0 0.0 0.0 0.0 0.0 0.0 0.0 0.0 0.0 0.0 0.0 0.0 0.0 0.0 0.0 0.0
0.0 0.0 0.0 0.0 0.0 0.0 0.0 0.0 0.0 0.0 0.0 0.0 0.0 0.0 0.0 0.0 0.0 0.0 0.0 0.0 0.0 0.0 0.0 0.0 0.0 0.0 0.0 0.3 0.0 0.0 0.1 0.0 0.0 0.0 0.0 0.0 0.1 0.1 0.0 0.0 0.0 0.1 0.0 0.0 0.0
0.0 0.0 0.0 0.0 0.0 0.0 0.0 0.0 0.0 0.0 0.0 0.0 0.0 0.0 0.0 0.0 0.0 0.0 0.0 0.0 0.0 0.0 0.0 0.0 0.0 0.0 0.0 0.0 0.0 0.1 0.0 1.4 0.0 0.0 0.0 0.0 1.1 0.0 0.0 0.0 0.3 0.0 0.0 0.0 0.0
0.0 0.0 0.0 0.0 0.0 0.0 0.0 0.0 0.0 0.0 0.0 0.0 0.0 0.0 0.0 0.0 0.0 0.0 0.0 0.0 0.0 0.0 0.0 0.0 0.0 0.0 0.0 0.3 0.5 0.4 1.6 0.1 0.0 0.0 0.0 0.0 1.2 0.5 0.0 0.1 0.1 0.1 0.3 0.1 0.3
0.0 0.0 0.0 0.0 0.0 0.0 0.0 0.0 0.0 0.0 0.0 0.0 0.0 0.0 0.0 0.0 0.0 0.0 0.0 0.0 0.0 0.0 0.0 0.0 0.0 0.4 0.2 1.8 4.7 0.6 1.2 0.4 0.4 0.0 0.0 0.0 0.9 0.3 0.1 1.1 1.7 0.9 0.9 3.4 5.0
0.0 0.0 0.0 0.0 0.0 0.0 0.0 0.0 0.0 0.0 0.0 0.0 0.0 0.0 0.0 0.0 0.0 0.0 0.0 0.0 0.0 0.0 0.1 0.0 2.0 2.9 0.9 0.1 0.5 0.2 0.8 0.9 0.2 0.2 0.4 1.0 0.5 1.9 0.8 1.2 1.5 0.3 2.0 6.5 6.5
0.0 0.0 0.0 0.0 0.0 0.0 0.0 0.0 0.0 0.0 0.4 0.0 0.0 0.0 0.0 0.0 0.0 0.0 0.0 0.0 0.0 0.1 0.0 0.8 0.6 0.0 0.0 0.0 0.3 0.5 0.9 0.4 0.0 0.0 0.1 0.7 2.3 3.9 1.2 4.2 4.6 4.4 2.9 5.8 4.3
0.0 0.0 0.0 0.0 0.0 0.0 0.0 0.0 0.0 0.0 1.5 0.0 0.0 0.0 0.0 0.0 0.0 0.0 0.0 0.0 0.0 0.1 0.0 1.0 0.0 0.0 0.0 0.5 2.6 0.3 0.3 0.1 0.0 0.0 0.3 0.7 4.1 5.2 2.3 2.2 1.1 1.0 2.6 4.6 6.2
0.0 0.0 0.0 0.0 0.0 0.0 0.0 0.0 0.0 0.0 15.9 0.3 0.0 0.0 0.0 0.0 0.0 0.0 0.0 0.0 0.6 0.2 0.0 0.1 0.0 0.4 0.2 0.1 0.7 4.5 0.0 0.0 0.0 0.5 5.0 0.3 11.0 3.6 1.8 3.5 0.0 0.3 1.2 2.8 4.0
0.0 0.0 0.0 0.0 0.0 0.0 0.0 0.0 0.0 0.0 51.7 0.0 0.0 0.0 0.0 0.0 0.0 0.0 0.0 0.0 3.9 0.5 0.2 0.4 0.0 0.7 0.9 0.0 0.0 0.8 0.0 0.1 0.0 0.8 1.9 2.5 10.7 2.7 0.8 1.4 0.0 0.5 1.0 2.0 4.4
0.0 0.0 0.0 0.0 0.0 0.0 0.0 0.0 0.0 29.9 45.9 0.2 0.0 0.0 0.0 0.0 0.0 0.0 0.0 0.0 0.0 3.3 1.3 0.1 0.0 0.0 0.2 0.0 0.0 0.0 0.9 0.6 0.3 4.3 23.8 4.0 3.6 2.0 3.5 4.6 0.4 1.0 1.0 1.0 3.2
0.0 0.0 0.0 0.0 0.0 0.0 0.0 0.0 45.4 50.6 0.0 0.4 0.4 0.1 0.0 1.2 0.6 0.2 5.8 8.4 11.3 19.7 11.6 0.6 0.1 0.0 0.0 0.6 0.0 0.3 4.9 32.0 34.5 34.2 23.5 2.1 2.3 4.1 3.1 2.6 4.9 6.6 4.5 2.7 4.2
0.0 0.0 0.0 0.0 0.0 0.0 0.0 16.9 77.3 3.2 2.1 0.0 0.0 0.4 0.8 0.1 0.6 1.6 1.6 6.2 5.2 4.8 13.6 8.6 5.6 0.1 0.0 0.0 2.0 3.2 4.4 16.8 19.6 11.2 5.6 0.4 6.4 3.7 0.8 1.4 4.3 5.2 5.4 1.6 2.0
0.0 0.0 0.0 0.0 0.0 0.0 3.6 66.3 19.6 3.3 1.2 1.2 0.4 1.9 2.3 2.1 4.5 3.8 3.6 3.5 3.3 7.8 21.2 16.6 1.7 0.0 0.0 0.0 0.0 2.8 9.2 2.5 5.6 2.8 3.7 2.5 1.1 1.1 0.2 0.6 1.5 2.8 6.0 6.0 3.0
0.0 0.0 0.0 0.0 0.0 0.0 24.2 27.4 1.1 0.5 0.9 1.9 5.9 1.6 5.1 4.3 7.1 15.2 11.3 5.0 4.9 5.0 6.0 12.2 13.1 0.1 0.4 0.0 0.1 0.4 0.5 7.4 14.2 22.5 12.4 2.2 1.5 2.6 1.5 1.3 1.5 2.9 6.6 8.4 4.0
0.0 2.6 0.0 0.0 0.0 2.4 42.0 9.0 0.8 0.2 1.0 4.9 4.6 4.5 1.6 11.0 14.5 18.3 22.4 5.3 3.8 3.8 7.1 11.9 14.7 6.0 0.3 1.9 2.0 1.5 6.9 3.7 9.1 8.6 10.2 4.6 3.3 4.9 6.1 6.0 5.0 6.0 8.7 12.9 8.4
0.0 14.9 0.0 0.0 13.5 18.7 13.2 1.9 0.2 0.4 1.2 2.1 1.3 2.2 2.7 3.8 15.7 13.3 10.3 10.1 1.8 2.8 11.2 7.0 17.9 16.8 3.7 0.4 0.6 0.2 6.8 5.4 15.5 8.4 7.6 6.3 3.2 3.8 4.6 5.4 5.4 7.4 8.6 13.4 11.9
7.7 2.7 0.0 0.0 33.9 14.8 3.6 1.7 2.3 1.5 2.0 3.6 2.7 1.6 1.2 3.3 13.5 5.2 3.9 1.5 3.2 5.6 11.5 9.1 20.0 21.2 15.7 6.5 0.2 3.6 1.2 4.0 5.7 8.4 7.2 9.5 3.0 1.3 2.3 3.8 4.6 9.6 8.5 13.1 12.0
12.0 22.5 11.0 8.3 7.6 5.7 7.4 5.5 5.5 1.2 2.4 1.2 2.0 1.0 2.9 3.0 1.4 5.2 1.8 0.3 0.2 3.1 0.9 3.1 11.0 12.4 12.5 16.7 14.4 12.2 3.4 2.4 5.5 8.9 8.0 4.7 2.1 0.9 1.1 2.5 2.6 6.4 10.3 13.6 14.3
8.2 16.4 0.3 19.9 9.8 5.5 12.4 9.8 4.1 4.7 3.2 1.3 3.5 1.6 6.5 12.9 4.4 4.2 1.9 0.9 0.8 0.5 3.0 9.1 12.7 4.8 0.7 1.6 4.8 6.3 7.7 5.0 7.0 2.3 7.4 3.3 3.8 2.7 3.0 4.2 5.8 7.8 10.5 12.0 11.7
10.8 9.0 3.0 5.4 1.1 6.8 11.9 11.4 2.8 6.1 8.9 4.6 5.1 2.1 2.9 8.8 5.9 9.8 7.5 4.6 6.6 5.3 10.4 11.3 9.2 4.1 3.2 1.5 2.0 3.3 1.5 4.1 3.5 0.8 1.6 2.0 2.4 1.5 2.0 1.7 4.4 7.9 10.3 11.8 11.6
0.4 0.0 6.9 7.4 7.0 12.6 11.8 5.1 4.5 6.5 4.6 2.7 3.2 5.9 3.5 2.4 1.4 1.2 1.2 2.8 4.3 11.5 12.8 14.3 13.4 9.6 8.7 1.8 5.4 7.6 7.5 3.9 2.8 3.1 2.9 3.7 3.2 1.1 0.8 1.4 4.6 8.8 12.3 13.3 12.7